Starlink 32456

operational
NORAD ID: 62041 Int'l Des: 2024-216 Owner: SPXS Country: US Constellation: starlink
LEOCIRCULAR

Über Starlink 32456

Beschreibung wird geladen...

Live-Position

3D-Globus wird geladen...

Nächste Überflüge

Höhenverlauf

Altitude vs Time

uPlot chart will show altitude changes over time

Zweizeiliger Elementsatz

1 62041U 24216K 25305.86520262 .00021154 00000-0 77625-3 0 9997
2 62041 43.0024 258.4614 0000923 243.4275 116.6482 15.27571091 54329
Epoch: 1. Nov. 2025 • Age: 42 hours

Aktueller Status

Höhe 482.6 km
Geschwindigkeit 7.63 km/s
Subsatellitenpunkt 1.97°N, 19.75°W
Startdatum 21. Nov. 2024
Alter 0.9 years
Typ internet

Technische Details

Klassifizierung Payload
Masse 730.00 kg
Trockenmasse 700.00 kg
Gesamtmasse 730.00 kg
Länge 0.30 m
Durchmesser 4.10 m
Spannweite 29.00 m
Form Box + pan
Hersteller SPXS
Bus-Typ Starlink V2M
Phasenstatus In Orbit
Besitzer/Staat SPXS/US

Große Konstellationen

Loading constellations...